KC4WTI Weather Reports


time (UTC)temp
C
wind
direction
speed
KPH
gust
KPH
rain 1hr
cm
rain 24hr
cm
rain mn
cm
humidity
%
barometer
mb
20260510164443 29 22 3.2 6.4 0.00 0.00 0.00 53 1016.1
20260510163944 29 252 3.2 8.0 0.00 0.00 0.00 57 1016.1
20260510163443 29 302 3.2 9.7 0.00 0.00 0.00 56 1016.1
20260510162947 28 150 1.6 9.7 0.00 0.00 0.00 57 1016.2
20260510162444 28 102 1.6 6.4 0.00 0.00 0.00 60 1016.2
20260510161940 28 98 3.2 8.0 0.00 0.00 0.00 62 1016.3
20260510161708 28 292 3.2 11.3 0.00 0.00 0.00 56 1016.3
20260510160939 28 251 1.6 11.3 0.00 0.00 0.00 57 1016.2
20260510160440 28 138 1.6 9.7 0.00 0.00 0.00 61 1016.3
20260510155939 28 237 3.2 9.7 0.00 0.00 0.00 61 1016.2
20260510155439 28 355 1.6 8.0 0.00 0.00 0.00 65 1016.2
20260510154937 27 246 1.6 8.0 0.00 0.00 0.00 63 1016.1
20260510154437 28 218 3.2 8.0 0.00 0.00 0.00 64 1016.1
20260510153940 27 254 3.2 8.0 0.00 0.00 0.00 62 1016.1
20260510153435 27 267 3.2 6.4 0.00 0.00 0.00 67 1016.1
20260510152934 27 261 3.2 6.4 0.00 0.00 0.00 64 1015.8
20260510152436 27 250 3.2 9.7 0.00 0.00 0.00 68 1016.0
20260510151933 27 268 3.2 9.7 0.00 0.00 0.00 68 1016.0
20260510151706 27 248 3.2 9.7 0.00 0.00 0.00 64 1015.8
20260510150931 27 261 3.2 4.8 0.00 0.00 0.00 67 1015.8
20260510150431 27 261 1.6 4.8 0.00 0.00 0.00 66 1015.8
20260510145930 26 227 3.2 6.4 0.00 0.00 0.00 69 1015.8
20260510145431 26 5 3.2 6.4 0.00 0.00 0.00 70 1016.0
20260510144931 26 255 3.2 6.4 0.00 0.00 0.00 69 1015.8
20260510144657 26 274 1.6 6.4 0.00 0.00 0.00 72 1016.0
20260510143931 25 238 3.2 8.0 0.00 0.00 0.00 74 1016.1
20260510143426 25 285 4.8 12.9 0.00 0.00 0.00 74 1016.1
20260510142927 25 286 4.8 12.9 0.00 0.00 0.00 72 1016.1
20260510142424 25 5 4.8 11.3 0.00 0.00 0.00 75 1016.2
20260510141925 25 234 4.8 11.3 0.00 0.00 0.00 71 1016.2
20260510141424 25 264 3.2 9.7 0.00 0.00 0.00 72 1016.1
20260510141141 25 248 1.6 6.4 0.00 0.00 0.00 72 1015.8
20260510140424 25 232 1.6 6.4 0.00 0.00 0.00 75 1015.6
20260510135925 25 248 1.6 4.8 0.00 0.00 0.00 74 1015.6
20260510135426 23 150 0.0 3.2 0.00 0.00 0.00 76 1015.5
20260510134926 23 317 0.0 3.2 0.00 0.00 0.00 79 1015.5
20260510134423 22 317 0.0 3.2 0.00 0.00 0.00 78 1015.4
20260510133923 22 317 0.0 3.2 0.00 0.00 0.00 82 1015.5
20260510133424 21 317 0.0 1.6 0.00 0.00 0.00 83 1015.6
20260510132920 21 317 0.0 3.2 0.00 0.00 0.00 82 1015.5
20260510132419 21 317 1.6 4.8 0.00 0.00 0.00 83 1015.6
20260510131919 21 317 1.6 4.8 0.00 0.00 0.00 83 1015.6
20260510131420 20 294 1.6 3.2 0.00 0.00 0.00 84 1015.7
20260510130917 20 294 1.6 3.2 0.00 0.00 0.00 85 1015.6
20260510130417 20 294 1.6 3.2 0.00 0.00 0.00 85 1015.6
20260510130143 20 351 1.6 3.2 0.00 0.00 0.00 86 1015.6
20260510125417 19 246 3.2 4.8 0.00 0.00 0.00 87 1015.6
20260510124917 19 246 3.2 4.8 0.00 0.00 0.00 86 1015.6
20260510124418 18 246 3.2 4.8 0.00 0.00 0.00 86 1015.5
20260510123917 18 246 1.6 6.4 0.00 0.00 0.00 86 1015.4
20260510123418 18 246 1.6 6.4 0.00 0.00 0.00 86 1015.2
20260510122918 18 246 3.2 4.8 0.00 0.00 0.00 87 1015.2
20260510122638 18 246 1.6 4.8 0.00 0.00 0.00 87 1015.2
20260510121910 18 234 1.6 4.8 0.00 0.00 0.00 88 1015.1
20260510121624 18 264 1.6 4.8 0.00 0.00 0.00 90 1015.1
20260510120902 17 255 1.6 4.8 0.00 0.00 0.00 92 1015.0
20260510120857 18 217 1.6 4.8 0.00 0.00 0.00 90 1015.0
20260510120112 17 255 1.6 4.8 0.00 0.00 0.00 92 1015.1
20260510115353 16 255 1.6 4.8 0.00 0.00 0.00 92 1015.0
20260510115109 16 255 1.6 4.8 0.00 0.00 0.00 92 1015.0
20260510114827 16 255 0.0 4.8 0.00 0.00 0.00 92 1015.0
20260510113845 16 208 0.0 4.8 0.00 0.00 0.00 92 1014.9
20260510113829 16 208 1.6 4.8 0.00 0.00 0.00 92 1014.9
20260510112843 15 283 1.6 4.8 0.00 0.00 0.00 92 1014.7
20260510112342 15 257 1.6 4.8 0.00 0.00 0.00 92 1014.6
20260510111839 15 261 1.6 3.2 0.00 0.00 0.00 92 1014.5
20260510111424 15 202 1.6 3.2 0.00 0.00 0.00 92 1014.4
20260510110332 15 202 1.6 6.4 0.00 0.00 0.00 92 1014.3
20260510105837 15 198 1.6 6.4 0.00 0.00 0.00 92 1014.2
20260510105330 14 202 1.6 4.8 0.00 0.00 0.00 92 1014.1
20260510104827 13 213 0.0 3.2 0.00 0.00 0.00 92 1014.0
20260510104426 13 213 0.0 1.6 0.00 0.00 0.00 91 1013.8
20260510103325 13 213 0.0 1.6 0.00 0.00 0.00 91 1013.7
20260510102823 13 213 0.0 0.0 0.00 0.00 0.00 90 1013.7
20260510102323 12 213 0.0 0.0 0.00 0.00 0.00 90 1013.8
20260510101817 13 213 0.0 0.0 0.00 0.00 0.00 90 1013.7
20260510101803 13 213 0.0 0.0 0.00 0.00 0.00 90 1013.7
20260510101039 12 213 0.0 0.0 0.00 0.00 0.00 90 1013.7
20260510100322 12 213 0.0 0.0 0.00 0.00 0.00 90 1013.6
20260510095819 12 213 0.0 1.6 0.00 0.00 0.00 90 1013.5
20260510095534 12 213 0.0 1.6 0.00 0.00 0.00 90 1013.5
20260510094816 12 213 0.0 0.0 0.00 0.00 0.00 90 1013.5
20260510094316 12 213 0.0 0.0 0.00 0.00 0.00 90 1013.4
20260510093814 12 213 0.0 1.6 0.00 0.00 0.00 89 1013.4
20260510093313 12 213 0.0 1.6 0.00 0.00 0.00 89 1013.4
20260510092812 12 213 0.0 1.6 0.00 0.00 0.00 89 1013.3
20260510092544 12 213 0.0 0.0 0.00 0.00 0.00 89 1013.3
20260510091810 12 213 0.0 0.0 0.00 0.00 0.00 89 1013.2
20260510091257 12 213 0.0 0.0 0.00 0.00 0.00 89 1013.1
20260510090756 12 213 0.0 0.0 0.00 0.00 0.00 89 1013.1
20260510090257 12 213 0.0 1.6 0.00 0.00 0.00 89 1013.1
20260510090025 12 213 0.0 1.6 0.00 0.00 0.00 89 1013.1
20260510085258 12 213 0.0 0.0 0.00 0.00 0.00 89 1013.0
20260510084758 12 213 0.0 0.0 0.00 0.00 0.00 89 1012.9
20260510084256 12 213 0.0 1.6 0.00 0.00 0.00 89 1013.0
20260510083759 12 213 0.0 1.6 0.00 0.00 0.00 89 1013.1
20260510083300 12 213 0.0 1.6 0.00 0.00 0.00 89 1013.1
20260510082756 12 213 0.0 0.0 0.00 0.00 0.00 89 1013.0
20260510082258 12 213 0.0 0.0 0.00 0.00 0.00 89 1013.0
20260510081757 12 213 0.0 0.0 0.00 0.00 0.00 89 1012.9
20260510081521 12 213 0.0 0.0 0.00 0.00 0.00 88 1012.8
20260510080755 12 213 0.0 0.0 0.00 0.00 0.00 88 1012.7
20260510080256 12 213 0.0 0.0 0.00 0.00 0.00 88 1012.6
20260510080023 12 213 0.0 0.0 0.00 0.00 0.00 88 1012.7
20260510075257 12 213 0.0 0.0 0.00 0.00 0.00 88 1012.7
20260510074755 12 213 0.0 0.0 0.00 0.00 0.00 88 1012.6
20260510074255 12 213 0.0 0.0 0.00 0.00 0.00 88 1012.7
20260510073754 12 213 0.0 0.0 0.00 0.00 0.00 87 1012.6
20260510073252 12 213 0.0 0.0 0.00 0.00 0.00 87 1012.6
20260510073020 12 213 0.0 0.0 0.00 0.00 0.00 87 1012.6
20260510072253 12 213 0.0 0.0 0.00 0.00 0.00 87 1012.7
20260510071752 12 213 0.0 0.0 0.00 0.00 0.00 87 1012.7
20260510071252 12 213 0.0 0.0 0.00 0.00 0.00 87 1012.8
20260510070752 12 213 0.0 0.0 0.00 0.00 0.00 86 1012.7
20260510070514 12 213 0.0 0.0 0.00 0.00 0.00 86 1012.8
20260510065752 13 213 0.0 1.6 0.00 0.00 0.00 86 1012.8
20260510065251 13 213 0.0 1.6 0.00 0.00 0.00 86 1012.8
20260510064746 13 213 0.0 0.0 0.00 0.00 0.00 86 1012.8
20260510064512 13 213 0.0 1.6 0.00 0.00 0.00 86 1012.7
20260510063743 13 213 0.0 1.6 0.00 0.00 0.00 86 1012.7
20260510063237 13 213 0.0 1.6 0.00 0.00 0.00 86 1012.6
20260510062729 13 213 0.0 0.0 0.00 0.00 0.00 86 1012.6
20260510062222 13 213 0.0 1.6 0.00 0.00 0.00 85 1012.5
20260510061717 13 213 0.0 1.6 0.00 0.00 0.00 85 1012.4
20260510061210 13 213 0.0 1.6 0.00 0.00 0.00 85 1012.3
20260510060707 13 213 0.0 1.6 0.00 0.00 0.00 85 1012.3
20260510060208 13 213 0.0 1.6 0.00 0.00 0.00 85 1012.2
20260510055708 13 213 0.0 1.6 0.00 0.00 0.00 85 1012.3
20260510055205 13 213 0.0 1.6 0.00 0.00 0.00 85 1012.2
20260510054705 13 213 0.0 1.6 0.00 0.00 0.00 84 1012.3
20260510054203 13 213 0.0 1.6 0.00 0.00 0.00 84 1012.2
20260510053704 13 213 0.0 1.6 0.00 0.00 0.00 84 1012.2
20260510053200 13 213 0.0 0.0 0.00 0.00 0.00 84 1012.3
20260510052701 13 213 0.0 0.0 0.00 0.00 0.00 83 1012.3
20260510052201 13 213 0.0 1.6 0.00 0.00 0.00 83 1012.3
20260510051700 13 213 0.0 1.6 0.00 0.00 0.00 83 1012.3
20260510051200 13 213 0.0 0.0 0.00 0.00 0.00 83 1012.3
20260510050700 13 213 0.0 0.0 0.00 0.00 0.00 82 1012.2
20260510050201 14 213 0.0 0.0 0.00 0.00 0.00 82 1012.3
20260510045700 14 213 0.0 0.0 0.00 0.00 0.00 81 1012.2
20260510045159 14 213 0.0 0.0 0.00 0.00 0.00 81 1012.2
20260510044658 14 213 0.0 0.0 0.00 0.00 0.00 81 1012.2
20260510044159 14 213 0.0 0.0 0.00 0.00 0.00 81 1012.2
20260510043702 14 213 0.0 0.0 0.00 0.00 0.00 80 1012.1
20260510043424 15 213 0.0 0.0 0.00 0.00 0.00 80 1012.2
20260510042700 15 213 0.0 0.0 0.00 0.00 0.00 79 1012.3
20260510042158 15 213 0.0 0.0 0.00 0.00 0.00 79 1012.2
20260510041700 15 213 0.0 0.0 0.00 0.00 0.00 78 1012.3
20260510041159 15 213 0.0 0.0 0.00 0.00 0.00 77 1012.2
20260510040658 15 213 0.0 0.0 0.00 0.00 0.00 77 1012.3
20260510040158 15 213 0.0 0.0 0.00 0.00 0.00 77 1012.3
20260510035658 15 213 0.0 0.0 0.00 0.00 0.00 77 1012.3
20260510035200 15 213 0.0 0.0 0.00 0.00 0.00 76 1012.3
20260510034700 15 213 0.0 0.0 0.00 0.00 0.00 76 1012.3
20260510034200 15 213 0.0 1.6 0.00 0.00 0.00 76 1012.3
20260510033658 16 213 0.0 1.6 0.00 0.00 0.00 76 1012.4
20260510033155 16 213 0.0 1.6 0.00 0.00 0.00 75 1012.3
20260510032656 16 213 0.0 3.2 0.00 0.00 0.00 75 1012.3
20260510032155 16 213 0.0 3.2 0.00 0.00 0.00 74 1012.4
20260510031658 16 319 0.0 1.6 0.00 0.00 0.00 72 1012.3
20260510031158 17 319 0.0 1.6 0.00 0.00 0.00 72 1012.3
20260510030652 17 319 0.0 1.6 0.00 0.00 0.00 72 1012.3
20260510030152 17 319 0.0 1.6 0.00 0.00 0.00 72 1012.2
20260510025650 17 319 0.0 1.6 0.00 0.00 0.00 72 1012.2
20260510025414 17 319 0.0 1.6 0.00 0.00 0.00 71 1012.3
20260510025132 17 319 0.0 1.6 0.00 0.00 0.00 70 1012.2
20260510024412 17 319 0.0 0.0 0.00 0.00 0.00 68 1012.1
20260510023648 18 319 0.0 0.0 0.00 0.00 0.00 66 1012.1
20260510023146 18 319 0.0 0.0 0.00 0.00 0.00 65 1012.1
20260510022645 18 319 0.0 1.6 0.00 0.00 0.00 64 1012.0
20260510022145 18 319 0.0 1.6 0.00 0.00 0.00 65 1012.0
20260510021646 18 319 0.0 1.6 0.00 0.00 0.00 64 1011.9
20260510021151 19 319 0.0 0.0 0.00 0.00 0.00 64 1011.8
20260510020645 19 319 0.0 0.0 0.00 0.00 0.00 62 1011.7
20260510020144 19 319 0.0 0.0 0.00 0.00 0.00 62 1011.7
20260510015643 20 319 0.0 0.0 0.00 0.00 0.00 60 1011.6
20260510015402 20 319 0.0 0.0 0.00 0.00 0.00 58 1011.5
20260510014854 20 319 0.0 0.0 0.00 0.00 0.00 57 1011.5
20260510014125 21 319 0.0 0.0 0.00 0.00 0.00 56 1011.4
20260510013840 21 319 0.0 0.0 0.00 0.00 0.00 55 1011.4
20260510013113 21 319 0.0 0.0 0.00 0.00 0.00 55 1011.2
20260510012837 21 319 0.0 1.6 0.00 0.00 0.00 54 1011.2
20260510012110 22 319 0.0 1.6 0.00 0.00 0.00 53 1011.2
20260510011608 22 319 0.0 0.0 0.00 0.00 0.00 53 1011.1
20260510011106 22 319 0.0 0.0 0.00 0.00 0.00 52 1011.1
20260510010605 23 319 0.0 1.6 0.00 0.00 0.00 50 1011.1
20260510010105 23 319 0.0 1.6 0.00 0.00 0.00 49 1011.0
20260510005834 23 319 0.0 0.0 0.00 0.00 0.00 48 1010.9
20260510005105 24 319 0.0 1.6 0.00 0.00 0.00 48 1010.7
20260510004604 24 319 0.0 1.6 0.00 0.00 0.00 47 1010.7
20260510004106 24 40 0.0 1.6 0.00 0.00 0.00 45 1010.5
20260510003603 25 40 0.0 3.2 0.00 0.00 0.00 45 1010.5
20260510003101 25 40 1.6 3.2 0.00 0.00 0.00 43 1010.4
20260510002601 25 40 1.6 3.2 0.00 0.00 0.00 41 1010.4
20260510002101 26 40 0.0 3.2 0.00 0.00 0.00 38 1010.4
20260510001602 26 40 1.6 3.2 0.00 0.00 0.00 37 1010.3
20260510001102 26 40 1.6 4.8 0.00 0.00 0.00 36 1010.3
20260510000555 26 40 1.6 4.8 0.00 0.00 0.00 34 1010.2
20260510000049 26 40 1.6 3.2 0.00 0.00 0.00 35 1010.2
20260509235543 27 40 1.6 3.2 0.00 0.00 0.00 33 1010.1
20260509235040 27 40 1.6 3.2 0.00 0.00 0.00 33 1010.1
20260509234541 27 40 1.6 3.2 0.00 0.00 0.00 36 1010.0
20260509234039 27 40 1.6 4.8 0.00 0.00 0.00 31 1009.9
20260509233538 27 40 1.6 4.8 0.00 0.00 0.00 32 1009.9
20260509233307 27 40 1.6 4.8 0.00 0.00 0.00 31 1009.9
20260509232537 27 346 1.6 4.8 0.00 0.00 0.00 33 1009.9
20260509232036 27 96 1.6 4.8 0.00 0.00 0.00 32 1009.8
20260509231537 28 70 1.6 4.8 0.00 0.00 0.00 32 1009.9
20260509231034 28 80 0.0 4.8 0.00 0.00 0.00 31 1009.8
20260509230535 28 80 1.6 3.2 0.00 0.00 0.00 34 1009.8
20260509230309 27 80 1.6 3.2 0.00 0.00 0.00 34 1009.8
20260509225532 27 103 1.6 4.8 0.00 0.00 0.00 33 1009.7
20260509225033 27 103 1.6 4.8 0.00 0.00 0.00 34 1009.7
20260509224533 27 23 3.2 6.4 0.00 0.00 0.00 37 1009.7
20260509224032 27 88 3.2 9.7 0.00 0.00 0.00 33 1009.6
20260509223532 27 63 3.2 9.7 0.00 0.00 0.00 33 1009.7
20260509223033 27 92 3.2 6.4 0.00 0.00 0.00 35 1009.7
20260509222843 27 78 1.6 6.4 0.00 0.00 0.00 35 1009.7
20260509221524 27 96 1.6 6.4 0.00 0.00 0.00 34 1009.9
20260509221247 28 105 1.6 4.8 0.00 0.00 0.00 32 1009.9
20260509220524 28 114 1.6 4.8 0.00 0.00 0.00 36 1009.9
20260509220025 27 350 1.6 6.4 0.00 0.00 0.00 36 1009.9
20260509215523 27 61 3.2 6.4 0.00 0.00 0.00 34 1009.9
20260509215022 27 98 3.2 6.4 0.00 0.00 0.00 36 1009.9
20260509214523 27 78 3.2 9.7 0.00 0.00 0.00 34 1010.0
20260509214018 27 78 3.2 9.7 0.00 0.00 0.00 34 1010.0
20260509213519 28 71 3.2 9.7 0.00 0.00 0.00 35 1010.0
20260509213018 28 14 1.6 9.7 0.00 0.00 0.00 33 1010.0
20260509212736 28 19 1.6 4.8 0.00 0.00 0.00 35 1010.0
20260509212020 28 19 1.6 4.8 0.00 0.00 0.00 35 1010.0
20260509211746 27 27 3.2 8.0 0.00 0.00 0.00 36 1010.1
20260509211017 27 355 3.2 8.0 0.00 0.00 0.00 36 1010.1
20260509210516 28 68 1.6 6.4 0.00 0.00 0.00 35 1010.0
20260509210020 27 101 3.2 6.4 0.00 0.00 0.00 35 1010.1
20260509205513 28 95 1.6 6.4 0.00 0.00 0.00 35 1010.1
20260509205007 28 137 1.6 6.4 0.00 0.00 0.00 36 1010.1
20260509204724 28 207 1.6 8.0 0.00 0.00 0.00 37 1010.1
20260509204000 28 98 1.6 8.0 0.00 0.00 0.00 36 1010.0
20260509203457 28 167 3.2 6.4 0.00 0.00 0.00 36 1010.0
20260509202954 28 219 3.2 9.7 0.00 0.00 0.00 37 1010.1
20260509202454 28 206 3.2 9.7 0.00 0.00 0.00 34 1010.1
20260509202211 28 240 3.2 6.4 0.00 0.00 0.00 36 1010.1
20260509201457 28 34 3.2 6.4 0.00 0.00 0.00 42 1010.2
20260509201452 28 248 3.2 6.4 0.00 0.00 0.00 38 1010.1
20260509200943 28 355 3.2 6.4 0.00 0.00 0.00 40 1010.2
20260509195952 28 91 4.8 12.9 0.00 0.00 0.00 35 1010.3
20260509195453 28 267 3.2 12.9 0.00 0.00 0.00 40 1010.4
20260509194953 28 14 1.6 6.4 0.00 0.00 0.00 39 1010.4
20260509194451 28 0 3.2 6.4 0.00 0.00 0.00 38 1010.3
20260509193946 28 327 3.2 11.3 0.00 0.00 0.00 39 1010.4
20260509193445 28 15 4.8 16.1 0.00 0.00 0.00 35 1010.3
20260509192947 28 248 3.2 16.1 0.00 0.00 0.00 36 1010.4
20260509192705 28 250 3.2 8.0 0.00 0.00 0.00 43 1010.4
20260509192205 28 254 4.8 11.3 0.00 0.00 0.00 45 1010.4
20260509191443 28 257 3.2 11.3 0.00 0.00 0.00 39 1010.4
20260509191430 28 234 3.2 12.9 0.00 0.00 0.00 40 1010.4
20260509190445 28 322 3.2 12.9 0.00 0.00 0.00 45 1010.4
20260509185937 28 309 3.2 9.7 0.00 0.00 0.00 43 1010.5
20260509185657 28 267 1.6 6.4 0.00 0.00 0.00 42 1010.6
20260509184937 28 254 3.2 8.0 0.00 0.00 0.00 42 1010.5
20260509184440 27 209 3.2 8.0 0.00 0.00 0.00 45 1010.7
20260509183940 27 341 3.2 9.7 0.00 0.00 0.00 39 1010.7
20260509183439 27 336 4.8 12.9 0.00 0.00 0.00 44 1010.7
20260509182938 28 335 4.8 12.9 0.00 0.00 0.00 42 1010.7
20260509182440 27 22 3.2 6.4 0.00 0.00 0.00 47 1010.7
20260509182206 27 29 3.2 9.7 0.00 0.00 0.00 44 1010.7
20260509181436 27 338 3.2 9.7 0.00 0.00 0.00 43 1010.8
20260509180936 27 57 3.2 9.7 0.00 0.00 0.00 42 1010.8
20260509180436 27 30 3.2 9.7 0.00 0.00 0.00 40 1010.8
20260509175935 27 9 3.2 9.7 0.00 0.00 0.00 49 1010.8
20260509175437 27 267 3.2 9.7 0.00 0.00 0.00 45 1010.9
20260509174935 27 317 3.2 11.3 0.00 0.00 0.00 51 1010.9
20260509174434 26 294 3.2 11.3 0.00 0.00 0.00 53 1010.9
20260509174029 26 51 3.2 6.4 0.00 0.00 0.00 54 1010.9
20260509172934 26 103 3.2 8.0 0.00 0.00 0.00 50 1010.9
20260509172435 26 243 3.2 8.0 0.00 0.00 0.00 52 1010.8
20260509171928 27 84 4.8 11.3 0.00 0.00 0.00 52 1010.8
20260509171423 26 312 4.8 11.3 0.00 0.00 0.00 55 1010.9
20260509170916 26 5 4.8 12.9 0.00 0.00 0.00 54 1011.0
20260509170410 26 225 3.2 12.9 0.00 0.00 0.00 48 1011.0
20260509165905 26 161 3.2 11.3 0.00 0.00 0.00 49 1011.0
20260509165401 26 324 3.2 11.3 0.00 0.00 0.00 55 1011.1
20260509164902 26 278 4.8 12.9 0.00 0.00 0.00 52 1011.2